Regional Weather Roundup
Issued by NWS

Home | Current Version | Previous Version | Graphics & Text | Print | Product List | Glossary On
Versions: 1 2 3 4 5 6 7 8 9 10 11 12 13 14 15 16 17 18 19 20 21 22 23 24 25 26 27 28 29 30 31 32 33 34 35 36 37 38 39 40 41 42 43 44 45 46 47 48 49 50
000
ASUS43 KTOP 181859
RWRKS

WEATHER ROUNDUP FOR KANSAS
NATIONAL WEATHER SERVICE GOODLAND KS
200 PM CDT FRI APR 18 2014

NOTE:  "FAIR" INDICATES FEW OR NO CLOUDS BELOW 12,000 FEET WITH NO
SIGNIFICANT WEATHER AND/OR OBSTRUCTIONS TO VISIBILITY.

KSZ001>006-013>018-027>032-041>047-182000-
NORTHWEST KANSAS

CITY           SKY/WX    TMP DP  RH WIND       PRES   REMARKS
GOODLAND       SUNNY     69  39  33 S23G30    30.00F
HAYS           SUNNY     68  45  42 S22G31    30.12F
HILL CITY      SUNNY     69  43  38 S18G30    30.08F
RUSSELL        SUNNY     69  42  37 S26G32    30.12F
$$

KSZ061>065-074>080-084>089-182000-
SOUTHWEST KANSAS

CITY           SKY/WX    TMP DP  RH WIND       PRES   REMARKS
DODGE CITY     SUNNY     65  45  48 S25G35    30.13F
ELKHART          N/A     69  40  34 S22         N/A
GARDEN CITY    SUNNY     65  44  46 S23G31    30.09F
GREAT BEND     SUNNY     68  45  42 S22G35    30.14F
LIBERAL        SUNNY     66  43  42 S26       30.13F
$$

KSZ066>073-081>083-090>101-182000-
SOUTHEAST KANSAS

CITY           SKY/WX    TMP DP  RH WIND       PRES   REMARKS
CHANUTE        SUNNY     67  41  38 SE9       30.25F
COFFEYVILLE    SUNNY     69  40  34 VRB3      30.24F
HUTCHINSON     SUNNY     69  43  38 S20G25    30.19F
NEWTON         SUNNY     66  43  42 S13G21    30.24F
PARSONS        SUNNY     70  41  34 VRB6      30.25F
WICHITA INTL   MOSUNNY   68  44  42 S17G23    30.21F
WICHITA JABRA  SUNNY     67  45  45 S12G23    30.21F
WINFIELD       SUNNY     70  45  40 S13G20    30.22F
$$

KSZ007>012-019>026-033>040-048>060-102>105-182000-
NORTHEAST KANSAS

CITY           SKY/WX    TMP DP  RH WIND       PRES   REMARKS
CONCORDIA      SUNNY     66  42  41 S17G30    30.16F
EMPORIA        SUNNY     64  40  41 SE10      30.23F
LAWRENCE       SUNNY     66  40  38 S9        30.25F
MANHATTAN      SUNNY     68  41  37 S12G21    30.20F
OLATHE IND     SUNNY     65  41  41 S7        30.27F
OLATHE EXE     SUNNY     63  41  44 S9        30.26F
SALINA         SUNNY     70  43  37 S15G25    30.18F
TOPEKA BILLARD SUNNY     66  40  38 S6        30.25F
TOPEKA FORBES  SUNNY     66  40  38 E12       30.24F
$$



USA.gov is the U.S. government's official web portal to all federal, state and local government web resources and services.